Friday Harbor, WA
on Saturday, February 16, 2013

Saturday
Previous Day Next Day
Daily Summary
 ActualAverageRecord
Temperature
Mean Temperature °F °F  
Max Temperature 50°F 45°F 54°F (1998)
Min Temperature 39°F 34°F 28°F (2001)
Degree Days
Heating Degree Days 20    
Moisture
Dew Point 39°F   
Average Humidity 84    
Maximum Humidity 100    
Minimum Humidity 61    
Precipitation
Precipitation 0.00 in in in ()
Wind
Wind Speed 3 mph   
Max Wind Speed 15 mph   
Max Gust Speed 30 mph   
Visibility 10 miles   
Events     
Averages and records for this station are not official NWS values.
Key: T is trace of precipitation, MM is missing value
Source: NWS Daily Summary
Seasonal Weather Averages
Time(PST)TemperatureDew PointHumidity Pressure Visibility Wind DirectionWind SpeedGust SpeedPrecipitationEvents Conditions
12:53 AM 39.9°F 39.0°F 97% 30.17 in 10.0 miles Calm Calm - N/A   Clear
1:53 AM 39.9°F 39.0°F 97% 30.17 in 10.0 miles Calm Calm - N/A   Overcast
2:53 AM 41.0°F 39.9°F 96% 30.16 in 9.0 miles Calm Calm - N/A   Overcast
3:36 AM 41.0°F 39.2°F 93% 30.15 in 10.0 miles Calm Calm - 0.00 in   Overcast
3:46 AM 42.8°F 41.0°F 93% 30.15 in 10.0 miles Calm Calm - 0.00 in   Overcast
3:53 AM 42.1°F 41.0°F 96% 30.14 in 10.0 miles Calm Calm - 0.00 in   Overcast
4:53 AM 43.0°F 42.1°F 97% 30.14 in 10.0 miles Calm Calm - N/A   Overcast
5:10 AM 42.8°F 42.8°F 100% 30.13 in 10.0 miles Calm Calm - N/A   Overcast
5:53 AM 44.1°F 42.1°F 93% 30.13 in 10.0 miles Calm Calm - N/A   Overcast
6:53 AM 44.1°F 42.1°F 93% 30.12 in 10.0 miles East 3.5 mph - N/A   Overcast
7:09 AM 44.6°F 42.8°F 93% 30.13 in 10.0 miles East 5.8 mph - N/A   Overcast
7:29 AM 44.6°F 42.8°F 93% 30.12 in 10.0 miles SE 3.5 mph - N/A   Scattered Clouds
7:53 AM 42.1°F 39.0°F 89% 30.14 in 10.0 miles Calm Calm - N/A   Scattered Clouds
8:53 AM 46.9°F 41.0°F 80% 30.14 in 10.0 miles Variable 3.5 mph - N/A   Mostly Cloudy
9:53 AM 48.0°F 41.0°F 77% 30.15 in 10.0 miles SW 8.1 mph 16.1 mph N/A   Clear
10:53 AM 50.0°F 39.0°F 66% 30.14 in 10.0 miles SW 8.1 mph 19.6 mph N/A   Clear
11:53 AM 50.0°F 37.0°F 61% 30.14 in 10.0 miles SW 13.8 mph 23.0 mph N/A   Partly Cloudy
12:53 PM 48.9°F 39.0°F 69% 30.12 in 10.0 miles SW 15.0 mph 29.9 mph N/A   Partly Cloudy
1:53 PM 48.0°F 37.0°F 66% 30.11 in 10.0 miles SW 13.8 mph 24.2 mph N/A   Mostly Cloudy
2:53 PM 46.0°F 37.9°F 73% 30.12 in 10.0 miles SW 9.2 mph 18.4 mph N/A   Overcast
3:53 PM 46.0°F 39.0°F 76% 30.12 in 10.0 miles WSW 6.9 mph - 0.00 in   Overcast
4:53 PM 46.0°F 37.0°F 71% 30.11 in 10.0 miles SW 10.4 mph 16.1 mph N/A   Overcast
5:53 PM 45.0°F 37.0°F 74% 30.12 in 10.0 miles SW 6.9 mph 23.0 mph N/A   Overcast
6:53 PM 44.1°F 37.0°F 76% 30.13 in 10.0 miles SW 11.5 mph 18.4 mph N/A   Overcast
7:53 PM 44.1°F 37.0°F 76% 30.14 in 10.0 miles WSW 8.1 mph 18.4 mph N/A   Overcast
8:53 PM 43.0°F 37.0°F 80% 30.16 in 10.0 miles Variable 5.8 mph - N/A   Mostly Cloudy
9:53 PM 43.0°F 37.0°F 80% 30.16 in 10.0 miles Variable 3.5 mph - N/A   Overcast
10:53 PM 43.0°F 37.9°F 82% 30.17 in 10.0 miles Variable 6.9 mph - N/A   Overcast
11:53 PM 42.1°F 37.9°F 85% 30.18 in 10.0 miles SW 5.8 mph - N/A   Overcast
Moon Phase
Feb. 16 Feb. 17 Feb. 25 Mar. 04 Mar. 11
Sunrise:07:17 AM (PST) Moon Rise:09:57 AM (PST)2/16
Sunset:05:35 PM (PST) Moon Set:12:15 AM (PST)2/16

Copyright © 2014 The Weather Underground, Inc.